Location: Rodson Ranch
(38.7188°N, 119.3202°W)
Time: 13:04:34
(UTC+00:00)

Cosmos 1300 - Pass Details

Date: 29 October 2020
Orbit: 511 x 514 km, 82.5° (Epoch: 01 December)

Event Time Altitude Azimuth Distance (km) Brightness Sun altitude
Exits shadow 12:45:40 - 349° (N) 1,939 5.5 -19.2°
Reaches altitude 10° 12:46:08 10° 349° (NNW) 1,744 5.2 -19.1°
Maximum altitude 12:49:57 73° 264° (W) 540 2.5 -18.4°
Drops below altitude 10° 12:53:43 10° 180° (S) 1,728 5.4 -17.7°
Sets 12:55:50 0° 178° (S) 2,608 6.3 -17.3°
